JCSAT-13

Last updated on Oct. 27, 2020, 5:52 a.m. UTC

1 38331U 12023A   20300.72673851 -.00000366  00000-0  00000+0 0  9995
2 38331   0.0120 245.8835 0002786 316.3611 218.9565  1.00272004 30928
UTC
Height (km)
Latitude
Longitude
Inclination
Orbital Period
UTC large
Height (km)
Speed (km/s)
/
Latitude / Longitude
Inclination (degrees)
Orbital Period (minutes)
Azimuth
Elevation
Range (km)
Doppler Factor
iOS Compass Heading
iOS Angle

Next 30 passes for location: Hong Kong

Rise time Rise Azimuth (degrees) Set time Set Azimuth (degrees) Duration Max altitude (degrees)

No matching passes for this satellites